EW7337 Weather Reports


time (UTC)temp
F
wind
direction
speed
knots
gust
knots
rain 1hr
in
rain 24hr
in
rain mn
in
humidity
%
barometer
mb
20260509090219 60 116 0.0 0.0 0.00 0.00 0.00 72 1026.4
20260509085705 60 116 0.0 0.0 0.00 0.00 0.00 71 1026.3
20260509085208 60 116 0.0 0.0 0.00 0.00 0.00 70 1026.3
20260509084724 60 116 0.0 0.0 0.00 0.00 0.00 70 1026.2
20260509084205 60 116 0.0 0.0 0.00 0.00 0.00 69 1026.2
20260509083706 60 116 0.0 0.0 0.00 0.00 0.00 68 1026.3
20260509083205 61 116 0.0 0.0 0.00 0.00 0.00 67 1026.1
20260509082705 61 116 0.0 0.0 0.00 0.00 0.00 67 1026.0
20260509082211 61 116 0.0 0.0 0.00 0.00 0.00 67 1026.0
20260509081709 62 116 0.0 0.0 0.00 0.00 0.00 67 1026.0
20260509081349 62 116 0.0 0.0 0.00 0.00 0.00 66 1025.8
20260509081256 62 116 0.0 0.0 0.00 0.00 0.00 67 1025.8
20260509080220 62 116 0.0 0.0 0.00 0.00 0.00 66 1025.8
20260509075707 63 116 0.0 0.0 0.00 0.00 0.00 66 1025.8
20260509075206 63 116 0.0 0.9 0.00 0.00 0.00 66 1025.7
20260509074705 63 116 0.0 0.9 0.00 0.00 0.00 66 1025.6
20260509074208 64 116 0.0 1.7 0.00 0.00 0.00 66 1025.5
20260509073706 64 119 0.0 1.7 0.00 0.00 0.00 65 1025.4
20260509073207 64 124 0.0 3.5 0.00 0.00 0.00 65 1025.4
20260509072711 64 101 0.0 3.5 0.00 0.00 0.00 64 1025.5
20260509072549 65 116 0.0 3.5 0.00 0.00 0.00 63 1025.3
20260509071710 65 110 0.0 3.5 0.00 0.00 0.00 63 1025.4
20260509071215 65 115 0.9 3.5 0.00 0.00 0.00 62 1025.3
20260509070711 65 113 0.9 3.5 0.00 0.00 0.00 62 1025.3
20260509070206 66 98 0.9 3.5 0.00 0.00 0.00 61 1025.2
20260509065700 66 111 0.0 3.5 0.00 0.00 0.00 61 1025.0
20260509065159 66 110 1.7 5.2 0.00 0.00 0.00 61 1024.9
20260509064657 66 119 0.0 5.2 0.00 0.00 0.00 61 1024.8
20260509064153 66 113 0.9 3.5 0.00 0.00 0.00 61 1024.8
20260509063655 67 122 0.9 2.6 0.00 0.00 0.00 60 1024.7
20260509063149 67 128 0.0 7.0 0.00 0.00 0.00 59 1024.6
20260509062647 67 121 0.9 7.0 0.00 0.00 0.00 59 1024.6
20260509062147 67 103 0.0 6.1 0.00 0.00 0.00 59 1024.6
20260509061645 68 150 1.7 6.1 0.00 0.00 0.00 59 1024.5
20260509061141 68 117 0.9 7.0 0.00 0.00 0.00 59 1024.5
20260509061047 68 169 1.7 7.0 0.00 0.00 0.00 58 1024.5
20260509060326 68 110 0.9 8.7 0.00 0.00 0.00 55 1024.3
20260509060319 68 169 0.9 6.1 0.00 0.00 0.00 55 1024.4
20260509060220 68 109 2.6 7.0 0.00 0.00 0.00 57 1024.4
20260509054637 69 169 0.9 8.7 0.00 0.00 0.00 55 1024.4
20260509054143 69 192 0.9 6.1 0.00 0.00 0.00 55 1024.3
20260509053637 69 126 2.6 7.0 0.00 0.00 0.00 55 1024.3
20260509053141 69 187 2.6 7.0 0.00 0.00 0.00 54 1024.3
20260509052133 69 103 1.7 7.8 0.00 0.00 0.00 54 1024.2
20260509051635 69 123 4.3 7.8 0.00 0.00 0.00 54 1024.1
20260509051559 69 92 2.6 7.8 0.00 0.00 0.00 53 1024.1
20260509050636 70 106 3.5 7.8 0.00 0.00 0.00 52 1024.1
20260509050135 70 169 1.7 6.1 0.00 0.00 0.00 52 1024.1
20260509045636 71 106 2.6 6.1 0.00 0.00 0.00 52 1024.1
20260509045133 70 125 1.7 7.0 0.00 0.00 0.00 52 1024.1
20260509045015 70 110 2.6 7.0 0.00 0.00 0.00 52 1024.1
20260509044555 71 131 2.6 6.1 0.00 0.00 0.00 51 1024.0
20260509043620 71 213 2.6 6.1 0.00 0.00 0.00 51 1024.0
20260509043118 71 175 3.5 6.1 0.00 0.00 0.00 50 1024.0
20260509042616 71 166 1.7 7.0 0.00 0.00 0.00 50 1024.0
20260509042108 71 101 1.7 6.1 0.00 0.00 0.00 50 1024.0
20260509041608 71 167 0.0 6.1 0.00 0.00 0.00 49 1024.0
20260509041102 71 119 1.7 7.8 0.00 0.00 0.00 50 1024.1
20260509040602 71 103 3.5 7.8 0.00 0.00 0.00 49 1024.1
20260509040104 71 50 2.6 7.0 0.00 0.00 0.00 50 1024.0
20260509035601 70 68 3.5 7.0 0.00 0.00 0.00 50 1024.0
20260509035056 71 108 4.3 7.0 0.00 0.00 0.00 50 1024.0
20260509034556 71 184 0.0 6.1 0.00 0.00 0.00 50 1023.9
20260509034521 71 164 1.7 7.8 0.00 0.00 0.00 51 1024.1
20260509033556 71 84 5.2 8.7 0.00 0.00 0.00 49 1024.1
20260509033050 71 117 2.6 8.7 0.00 0.00 0.00 50 1024.1
20260509032937 71 94 2.6 6.1 0.00 0.00 0.00 49 1024.2
20260509032050 71 202 1.7 6.1 0.00 0.00 0.00 49 1024.2
20260509031541 72 200 1.7 5.2 0.00 0.00 0.00 45 1024.2
20260509031108 71 242 0.0 4.3 0.00 0.00 0.00 47 1024.2
20260509030552 71 210 1.7 5.2 0.00 0.00 0.00 47 1024.2
20260509024927 70 219 0.0 6.1 0.00 0.00 0.00 47 1024.6
20260509024052 70 62 0.9 4.3 0.00 0.00 0.00 48 1024.6
20260509023536 70 125 0.9 7.8 0.00 0.00 0.00 48 1024.6
20260509023033 70 172 3.5 7.8 0.00 0.00 0.00 48 1024.8
20260509022534 70 213 0.0 4.3 0.00 0.00 0.00 49 1024.9
20260509022421 70 196 1.7 5.2 0.00 0.00 0.00 49 1024.9
20260509021533 69 275 0.0 5.2 0.00 0.00 0.00 52 1025.0
20260509021039 68 196 1.7 5.2 0.00 0.00 0.00 50 1025.1
20260509020538 69 263 0.9 5.2 0.00 0.00 0.00 51 1025.2
20260509020036 69 254 1.7 5.2 0.00 0.00 0.00 51 1025.2
20260509015928 68 213 1.7 7.8 0.00 0.00 0.00 52 1025.2
20260509015035 69 190 5.2 7.8 0.00 0.00 0.00 50 1025.4
20260509014538 69 155 3.5 7.0 0.00 0.00 0.00 52 1025.4
20260509014037 68 125 1.7 7.0 0.00 0.00 0.00 52 1025.4
20260509013926 68 196 1.7 7.0 0.00 0.00 0.00 53 1025.6
20260509013032 68 204 1.7 5.2 0.00 0.00 0.00 53 1025.6
20260509012533 68 178 1.7 5.2 0.00 0.00 0.00 53 1025.6
20260509012045 67 175 2.6 6.1 0.00 0.00 0.00 55 1025.6
20260509011543 67 202 3.5 6.1 0.00 0.00 0.00 52 1025.7
20260509011027 67 187 1.7 5.2 0.00 0.00 0.00 54 1025.5
20260509010524 67 227 0.9 4.3 0.00 0.00 0.00 55 1025.5
20260509010025 67 248 2.6 5.2 0.00 0.00 0.00 55 1025.4
20260509005520 66 219 0.9 5.2 0.00 0.00 0.00 56 1025.8
20260509005017 66 262 1.7 5.2 0.00 0.00 0.00 57 1025.9
20260509004511 66 224 2.6 5.2 0.00 0.00 0.00 58 1025.9
20260509004010 66 170 2.6 4.3 0.00 0.00 0.00 59 1025.8
20260509003510 65 174 2.6 5.2 0.00 0.00 0.00 57 1025.9
20260509003352 65 278 1.7 5.2 0.00 0.00 0.00 58 1025.9
20260509002509 65 234 0.9 6.1 0.00 0.00 0.00 60 1025.9
20260509002257 64 192 1.7 6.1 0.00 0.00 0.00 60 1025.8
20260509002141 65 236 3.5 6.1 0.00 0.00 0.00 60 1025.8
20260509001009 64 227 3.5 6.1 0.00 0.00 0.00 60 1025.8
20260509000956 64 223 1.7 2.6 0.00 0.00 0.00 61 1025.8
20260509000013 63 197 0.9 3.5 0.00 0.00 0.00 63 1025.8
20260508235858 63 274 0.9 7.8 0.00 0.00 0.00 62 1025.9
20260508235009 62 234 2.6 7.8 0.00 0.00 0.00 64 1026.0
20260508234505 62 279 1.7 7.0 0.00 0.00 0.00 63 1026.1
20260508234005 62 271 3.5 7.0 0.00 0.00 0.00 64 1026.1
20260508233504 62 277 2.6 3.5 0.00 0.00 0.00 64 1026.1
20260508233006 62 262 0.9 5.2 0.00 0.00 0.00 66 1026.0
20260508232506 61 190 2.6 5.2 0.00 0.00 0.00 66 1026.1
20260508232356 61 230 1.7 7.0 0.00 0.00 0.00 67 1026.1
20260508231519 60 259 3.5 7.8 0.00 0.00 0.00 67 1026.2
20260508231350 60 296 1.7 7.8 0.00 0.00 0.00 68 1026.1
20260508230509 60 259 3.5 7.0 0.00 0.00 0.00 68 1026.1
20260508230245 59 244 4.3 7.0 0.00 0.00 0.00 69 1026.1
20260508230135 60 261 5.2 7.0 0.00 0.00 0.00 68 1026.2
20260508225347 59 251 3.5 7.0 0.00 0.00 0.00 69 1026.1
20260508224508 59 274 2.6 5.2 0.00 0.00 0.00 70 1026.0
20260508224007 59 284 2.6 5.2 0.00 0.00 0.00 70 1026.1
20260508223940 58 238 2.6 6.1 0.00 0.00 0.00 71 1026.0
20260508223009 58 251 3.5 6.1 0.00 0.00 0.00 71 1026.0
20260508222508 58 243 2.6 6.1 0.00 0.00 0.00 72 1025.9
20260508222014 58 241 1.7 5.2 0.00 0.00 0.00 73 1025.9
20260508221503 57 259 1.7 4.3 0.00 0.00 0.00 74 1025.9
20260508221004 57 209 1.7 4.3 0.00 0.00 0.00 74 1026.0
20260508220503 56 256 1.7 6.1 0.00 0.00 0.00 75 1025.9
20260508220000 56 265 3.5 6.1 0.00 0.00 0.00 75 1025.8
20260508215500 56 256 1.7 5.2 0.00 0.00 0.00 76 1025.8
20260508215325 55 234 1.7 5.2 0.00 0.00 0.00 76 1025.7
20260508214455 55 257 1.7 3.5 0.00 0.00 0.00 77 1025.7
20260508213952 54 273 0.0 5.2 0.00 0.00 0.00 78 1025.6
20260508213448 54 281 1.7 5.2 0.00 0.00 0.00 78 1025.5
20260508213225 53 265 2.6 5.2 0.00 0.00 0.00 77 1025.3
20260508211947 53 270 1.7 3.5 0.00 0.00 0.00 76 1025.3
20260508211448 53 265 1.7 2.6 0.00 0.00 0.00 76 1025.2
20260508210945 53 281 1.7 2.6 0.00 0.00 0.00 75 1025.2
20260508210447 53 277 0.9 2.6 0.00 0.00 0.00 75 1025.1
20260508204933 54 272 1.7 5.2 0.00 0.00 0.00 75 1025.0
20260508204432 54 278 2.6 5.2 0.00 0.00 0.00 75 1024.8
20260508203938 54 267 2.6 5.2 0.00 0.00 0.00 74 1024.8
20260508203433 55 269 1.7 3.5 0.00 0.00 0.00 74 1024.7
20260508202938 55 277 1.7 5.2 0.00 0.00 0.00 74 1024.7
20260508202431 55 265 2.6 5.2 0.00 0.00 0.00 74 1024.6
20260508201933 55 259 1.7 5.2 0.00 0.00 0.00 74 1024.6
20260508201758 55 277 3.5 5.2 0.00 0.00 0.00 74 1024.4
20260508200925 55 271 3.5 7.0 0.00 0.00 0.00 74 1024.5
20260508200845 56 273 3.5 7.0 0.00 0.00 0.00 74 1024.3
20260508195918 56 263 2.6 6.1 0.00 0.00 0.00 74 1024.3
20260508195415 56 262 2.6 5.2 0.00 0.00 0.00 74 1024.2
20260508194913 56 269 1.7 4.3 0.00 0.00 0.00 74 1024.1
20260508194410 56 246 1.7 5.2 0.00 0.00 0.00 74 1024.0
20260508193922 56 263 2.6 5.2 0.00 0.00 0.00 74 1024.0
20260508192920 56 263 2.6 4.3 0.00 0.00 0.00 74 1023.8
20260508192419 56 271 1.7 4.3 0.00 0.00 0.00 74 1023.6
20260508191912 55 251 2.6 3.5 0.00 0.00 0.00 74 1023.5
20260508191410 55 267 1.7 3.5 0.00 0.00 0.00 74 1023.5
20260508190905 55 250 1.7 3.5 0.00 0.00 0.00 74 1023.5
20260508190710 55 269 1.7 6.1 0.00 0.00 0.00 74 1023.5
20260508190553 55 262 2.6 5.2 0.00 0.00 0.00 74 1023.5
20260508185405 55 259 3.5 6.1 0.00 0.00 0.00 74 1023.5
20260508184902 55 261 2.6 3.5 0.00 0.00 0.00 74 1023.4
20260508184400 55 271 1.7 5.2 0.00 0.00 0.00 75 1023.4
20260508183857 55 265 2.6 5.2 0.00 0.00 0.00 75 1023.3
20260508183354 55 263 1.7 3.5 0.00 0.00 0.00 74 1023.3
20260508182850 55 265 2.6 6.1 0.00 0.00 0.00 74 1023.2
20260508182736 55 266 1.7 6.1 0.00 0.00 0.00 74 1023.2
20260508181854 55 258 1.7 3.5 0.00 0.00 0.00 74 1023.1
20260508181347 55 268 2.6 5.2 0.00 0.00 0.00 74 1023.1
20260508180842 55 263 2.6 5.2 0.00 0.00 0.00 74 1023.1
20260508180339 55 263 1.7 3.5 0.00 0.00 0.00 74 1023.1
20260508175837 55 263 2.6 3.5 0.00 0.00 0.00 74 1023.1
20260508175335 55 276 2.6 3.5 0.00 0.00 0.00 74 1022.9
20260508174834 55 278 1.7 3.5 0.00 0.00 0.00 74 1023.0
20260508174335 55 267 2.6 3.5 0.00 0.00 0.00 74 1023.0
20260508173838 55 267 1.7 3.5 0.00 0.00 0.00 74 1023.2
20260508173326 55 266 1.7 3.5 0.00 0.00 0.00 74 1023.0
20260508172829 55 265 1.7 3.5 0.00 0.00 0.00 74 1023.0
20260508172328 55 261 0.9 3.5 0.00 0.00 0.00 74 1023.2
20260508171812 55 267 1.7 3.5 0.00 0.00 0.00 74 1023.1
20260508171652 55 269 1.7 5.2 0.00 0.00 0.00 74 1023.2
20260508171057 55 267 1.7 3.5 0.00 0.00 0.00 74 1023.1
20260508170945 55 270 0.9 5.2 0.00 0.00 0.00 74 1023.1
20260508165808 55 269 1.7 3.5 0.00 0.00 0.00 73 1023.1
20260508165627 55 270 1.7 3.5 0.00 0.00 0.00 74 1023.1
20260508164808 55 272 1.7 3.5 0.00 0.00 0.00 73 1023.0
20260508164308 55 275 1.7 3.5 0.00 0.00 0.00 73 1023.2
20260508163806 55 274 1.7 3.5 0.00 0.00 0.00 73 1023.1
20260508163309 55 270 2.6 3.5 0.00 0.00 0.00 73 1023.1
20260508162816 55 269 2.6 6.1 0.00 0.00 0.00 73 1023.1
20260508162313 55 269 3.5 6.1 0.00 0.00 0.00 73 1023.1
20260508161801 55 270 3.5 6.1 0.00 0.00 0.00 73 1023.1
20260508161255 55 268 2.6 5.2 0.00 0.00 0.00 72 1023.0
20260508160751 55 271 1.7 3.5 0.00 0.00 0.00 72 1022.9
20260508155747 55 266 2.6 6.1 0.00 0.00 0.00 72 1022.8
20260508155238 55 278 2.6 6.1 0.00 0.00 0.00 72 1022.8
20260508154739 55 281 3.5 6.1 0.00 0.00 0.00 72 1022.9
20260508154236 55 264 2.6 6.1 0.00 0.00 0.00 72 1022.9
20260508153733 55 256 2.6 5.2 0.00 0.00 0.00 71 1022.9
20260508153553 55 273 2.6 6.1 0.00 0.00 0.00 71 1022.9
20260508152731 55 265 2.6 6.1 0.00 0.00 0.00 71 1023.0
20260508152615 56 259 1.7 5.2 0.00 0.00 0.00 71 1022.9
20260508151732 56 269 3.5 5.2 0.00 0.00 0.00 71 1022.9
20260508151618 56 265 1.7 4.3 0.00 0.00 0.00 71 1023.1
20260508150734 56 269 1.7 3.5 0.00 0.00 0.00 71 1023.0
20260508150616 56 252 1.7 3.5 0.00 0.00 0.00 71 1023.1
20260508145736 56 257 1.7 6.1 0.00 0.00 0.00 71 1023.1
20260508145227 56 272 2.6 6.1 0.00 0.00 0.00 71 1023.0
20260508145115 56 276 2.6 5.2 0.00 0.00 0.00 71 1022.8
20260508144228 56 255 3.5 6.1 0.00 0.00 0.00 70 1022.9
20260508143726 56 268 3.5 6.1 0.00 0.00 0.00 70 1022.9
20260508143606 56 269 3.5 6.1 0.00 0.00 0.00 70 1023.1
20260508143152 56 272 3.5 6.1 0.00 0.00 0.00 70 1023.0
20260508142217 56 270 2.6 5.2 0.00 0.00 0.00 70 1023.1
20260508141723 56 273 1.7 5.2 0.00 0.00 0.00 70 1023.2
20260508141555 56 263 1.7 5.2 0.00 0.00 0.00 70 1023.1
20260508140709 56 268 1.7 2.6 0.00 0.00 0.00 70 1023.1
20260508140209 56 288 1.7 2.6 0.00 0.00 0.00 69 1023.1
20260508135721 57 275 1.7 3.5 0.00 0.00 0.00 69 1022.9
20260508135207 57 274 1.7 3.5 0.00 0.00 0.00 69 1022.9
20260508134705 57 272 2.6 5.2 0.00 0.00 0.00 69 1022.9
20260508134203 57 266 1.7 5.2 0.00 0.00 0.00 69 1022.9
20260508133708 56 299 2.6 6.1 0.00 0.00 0.00 69 1022.8
20260508133200 56 265 3.5 6.1 0.00 0.00 0.00 69 1022.9
20260508132657 56 271 3.5 5.2 0.00 0.00 0.00 69 1022.8
20260508132154 56 272 3.5 5.2 0.00 0.00 0.00 69 1022.9
20260508132049 56 288 2.6 6.1 0.00 0.00 0.00 69 1022.9
20260508131156 56 277 2.6 6.1 0.00 0.00 0.00 69 1022.9
20260508130647 56 293 3.5 5.2 0.00 0.00 0.00 69 1023.0
20260508125646 57 265 2.6 3.5 0.00 0.00 0.00 69 1022.9
20260508125147 56 279 1.7 5.2 0.00 0.00 0.00 69 1022.9
20260508124334 56 277 1.7 5.2 0.00 0.00 0.00 69 1022.9
20260508124310 56 283 1.7 5.2 0.00 0.00 0.00 69 1022.9
20260508124231 56 274 2.6 3.5 0.00 0.00 0.00 69 1022.9
20260508122633 56 273 1.7 5.2 0.00 0.00 0.00 69 1022.8
20260508122134 56 261 1.7 5.2 0.00 0.00 0.00 69 1022.8
20260508121633 56 266 1.7 5.2 0.00 0.00 0.00 69 1022.7
20260508121128 56 271 2.6 4.3 0.00 0.00 0.00 69 1022.9
20260508120626 56 278 2.6 5.2 0.00 0.00 0.00 69 1023.0
20260508120127 56 270 3.5 5.2 0.00 0.00 0.00 69 1022.8
20260508115621 56 279 2.6 5.2 0.00 0.00 0.00 69 1022.8
20260508115118 57 271 2.6 3.5 0.00 0.00 0.00 69 1022.8
20260508114613 57 271 2.6 3.5 0.00 0.00 0.00 69 1022.8
20260508114112 57 281 1.7 3.5 0.00 0.00 0.00 68 1022.9
20260508113607 57 269 2.6 5.2 0.00 0.00 0.00 68 1022.8
20260508113108 57 275 2.6 5.2 0.00 0.00 0.00 68 1022.7
20260508112939 57 267 2.6 6.1 0.00 0.00 0.00 67 1022.5
20260508112726 57 265 1.7 5.2 0.00 0.00 0.00 68 1022.7
20260508111947 57 274 2.6 6.1 0.00 0.00 0.00 67 1022.4
20260508111059 58 270 2.6 3.5 0.00 0.00 0.00 67 1022.5
20260508110951 58 275 0.9 5.2 0.00 0.00 0.00 66 1022.3
20260508110051 58 263 3.5 5.2 0.00 0.00 0.00 66 1022.3
20260508105547 58 276 1.7 6.1 0.00 0.00 0.00 66 1022.2
20260508105428 58 259 1.7 6.1 0.00 0.00 0.00 66 1022.1
20260508104542 58 281 1.7 7.0 0.00 0.00 0.00 66 1022.0
20260508104036 58 255 3.5 7.0 0.00 0.00 0.00 66 1022.0
20260508103531 58 269 3.5 6.1 0.00 0.00 0.00 65 1022.0
20260508103426 58 269 3.5 6.1 0.00 0.00 0.00 65 1021.9
20260508102948 58 273 3.5 7.0 0.00 0.00 0.00 65 1021.9
20260508102020 58 267 3.5 7.0 0.00 0.00 0.00 65 1021.9
20260508101525 58 277 3.5 7.0 0.00 0.00 0.00 65 1021.8
20260508101022 58 286 3.5 7.0 0.00 0.00 0.00 64 1021.8
20260508100859 59 261 2.6 6.1 0.00 0.00 0.00 64 1021.8
20260508100018 59 265 3.5 8.7 0.00 0.00 0.00 64 1021.8
20260508095517 59 248 4.3 8.7 0.00 0.00 0.00 63 1021.6
20260508095022 59 274 3.5 7.0 0.00 0.00 0.00 63 1021.6
20260508094506 59 286 5.2 7.0 0.00 0.00 0.00 63 1021.6
20260508094004 59 263 2.6 7.0 0.00 0.00 0.00 63 1021.5
20260508093505 59 299 3.5 7.0 0.00 0.00 0.00 62 1021.4
20260508093005 59 246 5.2 7.8 0.00 0.00 0.00 62 1021.4
20260508092503 60 261 4.3 7.8 0.00 0.00 0.00 62 1021.3
20260508092003 60 292 4.3 8.7 0.00 0.00 0.00 62 1021.3
20260508091503 60 255 4.3 8.7 0.00 0.00 0.00 62 1021.1
20260508091003 60 265 3.5 10.4 0.00 0.00 0.00 61 1021.1
20260508090503 60 258 2.6 10.4 0.00 0.00 0.00 61 1021.1